Météo par heure à Juhana

Ce jour, 20 Juin, Dimanche

Heure Température Précipitation Vent Pression Humidité
00:00 +20°C° 0 mm 3 m/s 749 mmHg 88%
01:00 +19°C° 0 mm 3 m/s 749 mmHg 91%
02:00 +18°C° 0 mm 3 m/s 749 mmHg 93%
03:00 +18°C° 0 mm 2 m/s 749 mmHg 93%
04:00 +18°C° 0 mm 2 m/s 748 mmHg 93%
05:00 +18°C° 0 mm 2 m/s 748 mmHg 93%
06:00 +19°C° 0 mm 3 m/s 748 mmHg 87%
07:00 +21°C° 0 mm 4 m/s 748 mmHg 81%
08:00 +23°C° 0 mm 4 m/s 748 mmHg 75%
09:00 +25°C° 0 mm 4 m/s 748 mmHg 70%
10:00 +26°C° 0 mm 4 m/s 748 mmHg 65%
11:00 +28°C° 0 mm 4 m/s 748 mmHg 61%
12:00 +28°C° 0 mm 4 m/s 748 mmHg 61%
13:00 +28°C° 0 mm 3 m/s 748 mmHg 61%
14:00 +28°C° 0 mm 3 m/s 747 mmHg 62%
15:00 +28°C° 0.2 mm 4 m/s 747 mmHg 64%
16:00 +28°C° 0.2 mm 4 m/s 747 mmHg 66%
17:00 +28°C° 0.2 mm 4 m/s 747 mmHg 68%
18:00 +27°C° 0.1 mm 4 m/s 746 mmHg 73%
19:00 +26°C° 0.1 mm 3 m/s 746 mmHg 78%
20:00 +25°C° 0.1 mm 3 m/s 746 mmHg 83%
21:00 +24°C° 0.1 mm 3 m/s 746 mmHg 85%
22:00 +23°C° 0.1 mm 2 m/s 746 mmHg 88%
23:00 +21°C° 0.1 mm 2 m/s 746 mmHg 90%

Demain, 21 Juin, Lundi

Heure Température Précipitation Vent Pression Humidité
00:00 +20°C° 0 mm 2 m/s 746 mmHg 90%
01:00 +20°C° 0 mm 3 m/s 746 mmHg 91%
02:00 +19°C° 0 mm 3 m/s 745 mmHg 92%
03:00 +19°C° 0 mm 3 m/s 745 mmHg 92%
04:00 +19°C° 0 mm 3 m/s 745 mmHg 93%
05:00 +18°C° 0 mm 3 m/s 745 mmHg 94%
06:00 +20°C° 0 mm 4 m/s 745 mmHg 89%
07:00 +21°C° 0 mm 4 m/s 745 mmHg 83%
08:00 +22°C° 0 mm 5 m/s 745 mmHg 78%
09:00 +25°C° 0 mm 5 m/s 745 mmHg 72%
10:00 +26°C° 0 mm 6 m/s 745 mmHg 67%
11:00 +27°C° 0 mm 6 m/s 745 mmHg 61%
12:00 +27°C° 0 mm 5 m/s 744 mmHg 62%
13:00 +27°C° 0 mm 4 m/s 744 mmHg 64%
14:00 +27°C° 0 mm 4 m/s 744 mmHg 65%
15:00 +27°C° 0.1 mm 4 m/s 744 mmHg 64%
16:00 +28°C° 0.1 mm 4 m/s 744 mmHg 63%
17:00 +28°C° 0.1 mm 4 m/s 744 mmHg 63%
18:00 +27°C° 0 mm 4 m/s 743 mmHg 69%
19:00 +26°C° 0 mm 3 m/s 743 mmHg 75%
20:00 +25°C° 0 mm 3 m/s 743 mmHg 80%
21:00 +24°C° 0 mm 3 m/s 743 mmHg 83%
22:00 +22°C° 0 mm 3 m/s 743 mmHg 86%
23:00 +21°C° 0 mm 3 m/s 743 mmHg 89%

Après-demain, 22 Juin, Mardi

Heure Température Précipitation Vent Pression Humidité
00:00 +20°C° 0 mm 3 m/s 743 mmHg 91%
01:00 +20°C° 0 mm 3 m/s 743 mmHg 92%
02:00 +19°C° 0 mm 3 m/s 743 mmHg 94%
03:00 +19°C° 0 mm 3 m/s 743 mmHg 94%
04:00 +19°C° 0 mm 3 m/s 743 mmHg 95%
05:00 +19°C° 0 mm 3 m/s 743 mmHg 95%
06:00 +21°C° 0 mm 3 m/s 744 mmHg 89%
07:00 +22°C° 0 mm 3 m/s 744 mmHg 83%
08:00 +25°C° 0 mm 4 m/s 744 mmHg 76%
09:00 +26°C° 0 mm 4 m/s 744 mmHg 72%
10:00 +27°C° 0 mm 4 m/s 744 mmHg 67%
11:00 +29°C° 0 mm 4 m/s 744 mmHg 62%
12:00 +29°C° 0.6 mm 4 m/s 744 mmHg 62%
13:00 +29°C° 0.6 mm 3 m/s 744 mmHg 62%
14:00 +30°C° 0.6 mm 3 m/s 744 mmHg 61%
15:00 +28°C° 3.2 mm 3 m/s 745 mmHg 70%
16:00 +26°C° 3.2 mm 3 m/s 745 mmHg 78%
17:00 +24°C° 3.2 mm 3 m/s 745 mmHg 87%
18:00 +24°C° 1.3 mm 2 m/s 745 mmHg 89%
19:00 +23°C° 1.3 mm 2 m/s 745 mmHg 90%
20:00 +23°C° 1.3 mm 2 m/s 745 mmHg 92%
21:00 +21°C° 1.2 mm 2 m/s 745 mmHg 92%
22:00 +22°C° 1.2 mm 1 m/s 745 mmHg 93%
23:00 +22°C° 1.2 mm 1 m/s 745 mmHg 93%

23 Juin, Mercredi

Heure Température Précipitation Vent Pression Humidité
00:00 +22°C° 0.2 mm 1 m/s 745 mmHg 93%
01:00 +21°C° 0.2 mm 1 m/s 745 mmHg 94%
02:00 +21°C° 0.2 mm 1 m/s 745 mmHg 94%
03:00 +21°C° 0 mm 1 m/s 746 mmHg 94%
04:00 +21°C° 0 mm 1 m/s 746 mmHg 94%
05:00 +21°C° 0 mm 1 m/s 746 mmHg 93%
06:00 +23°C° 0 mm 2 m/s 746 mmHg 89%
07:00 +24°C° 0 mm 2 m/s 746 mmHg 86%
08:00 +26°C° 0 mm 2 m/s 746 mmHg 82%
09:00 +27°C° 0.2 mm 3 m/s 746 mmHg 77%
10:00 +28°C° 0.2 mm 3 m/s 746 mmHg 72%
11:00 +30°C° 0.2 mm 3 m/s 746 mmHg 67%
12:00 +30°C° 0.3 mm 3 m/s 747 mmHg 63%
13:00 +31°C° 0.3 mm 3 m/s 747 mmHg 60%
14:00 +33°C° 0.3 mm 3 m/s 747 mmHg 57%
15:00 +33°C° 0.1 mm 3 m/s 747 mmHg 57%
16:00 +33°C° 0.1 mm 3 m/s 747 mmHg 57%
17:00 +33°C° 0.1 mm 3 m/s 747 mmHg 58%
18:00 +30°C° 0.5 mm 3 m/s 747 mmHg 65%
19:00 +27°C° 0.5 mm 3 m/s 747 mmHg 72%
20:00 +25°C° 0.5 mm 3 m/s 747 mmHg 80%
21:00 +24°C° 1.1 mm 3 m/s 747 mmHg 82%
22:00 +23°C° 1.1 mm 2 m/s 747 mmHg 84%
23:00 +21°C° 1.1 mm 1 m/s 748 mmHg 86%

24 Juin, Jeudi

Heure Température Précipitation Vent Pression Humidité
00:00 +20°C° 0.2 mm 2 m/s 748 mmHg 88%
01:00 +20°C° 0.2 mm 2 m/s 748 mmHg 90%
02:00 +19°C° 0.2 mm 2 m/s 748 mmHg 92%
03:00 +19°C° 0 mm 2 m/s 748 mmHg 93%
04:00 +19°C° 0 mm 2 m/s 748 mmHg 95%
05:00 +18°C° 0 mm 2 m/s 748 mmHg 97%
06:00 +19°C° 0 mm 3 m/s 749 mmHg 93%
07:00 +20°C° 0 mm 3 m/s 749 mmHg 89%
08:00 +21°C° 0 mm 3 m/s 749 mmHg 85%
09:00 +24°C° 0 mm 3 m/s 749 mmHg 79%
10:00 +25°C° 0 mm 3 m/s 749 mmHg 74%
11:00 +26°C° 0 mm 3 m/s 749 mmHg 69%
12:00 +27°C° 0 mm 2 m/s 749 mmHg 66%
13:00 +28°C° 0 mm 2 m/s 749 mmHg 63%
14:00 +28°C° 0 mm 2 m/s 749 mmHg 60%
15:00 +28°C° 0 mm 2 m/s 749 mmHg 60%
16:00 +29°C° 0 mm 1 m/s 749 mmHg 59%
17:00 +29°C° 0 mm 1 m/s 749 mmHg 59%
18:00 +28°C° 0 mm 1 m/s 748 mmHg 64%
19:00 +27°C° 0 mm 1 m/s 748 mmHg 69%
20:00 +26°C° 0 mm 1 m/s 747 mmHg 75%
21:00 +24°C° 0 mm 1 m/s 747 mmHg 77%
22:00 +23°C° 0 mm 2 m/s 747 mmHg 80%
23:00 +21°C° 0 mm 2 m/s 747 mmHg 82%

25 Juin, Vendredi

Heure Température Précipitation Vent Pression Humidité
00:00 +21°C° 0.1 mm 3 m/s 747 mmHg 86%
01:00 +20°C° 0.1 mm 3 m/s 746 mmHg 89%
02:00 +20°C° 0.1 mm 3 m/s 746 mmHg 92%
03:00 +20°C° 2.4 mm 4 m/s 746 mmHg 94%
04:00 +20°C° 2.4 mm 5 m/s 747 mmHg 95%
05:00 +19°C° 2.4 mm 6 m/s 747 mmHg 97%
06:00 +20°C° 1.7 mm 5 m/s 746 mmHg 96%
07:00 +20°C° 1.7 mm 4 m/s 746 mmHg 95%
08:00 +20°C° 1.7 mm 4 m/s 746 mmHg 94%
09:00 +22°C° 0.5 mm 3 m/s 746 mmHg 89%
10:00 +25°C° 0.5 mm 3 m/s 746 mmHg 83%
11:00 +27°C° 0.5 mm 3 m/s 746 mmHg 77%
12:00 +27°C° 0.2 mm 3 m/s 746 mmHg 76%
13:00 +27°C° 0.2 mm 4 m/s 746 mmHg 74%
14:00 +27°C° 0.2 mm 4 m/s 746 mmHg 73%
15:00 +26°C° 0.2 mm 4 m/s 746 mmHg 76%
16:00 +25°C° 0.2 mm 5 m/s 746 mmHg 78%
17:00 +25°C° 0.2 mm 5 m/s 746 mmHg 81%
18:00 +22°C° 0 mm 6 m/s 746 mmHg 84%
19:00 +20°C° 0 mm 6 m/s 747 mmHg 87%
20:00 +19°C° 0 mm 6 m/s 747 mmHg 89%
21:00 +17°C° 0 mm 6 m/s 748 mmHg 89%
22:00 +16°C° 0 mm 5 m/s 748 mmHg 89%
23:00 +15°C° 0 mm 5 m/s 749 mmHg 89%
Voir plus

Nous avons besoin de votre consentement

Meteoprog et ses fournisseurs de services peuvent stocker et accéder à des données personnelles telles que des cookies, des identifiants d'appareils ou d'autres technologies similaires sur votre appareil et traiter ces données pour personnaliser le contenu et les publicités, ainsi que pour fournir des fonctionnalités de médias sociaux et analyser le trafic.

  • Stocker et/ou accéder à des informations sur votre appareil

    Des cookies, des identifiants d'appareils ou d'autres informations peuvent être stockés ou accessibles sur votre appareil aux fins indiquées ci-dessus.

  • Annonces et contenus personnalisés, mesure des annonces et des contenus, connaissance de l'audience et développement de produits

    Les annonces et le contenu peuvent être personnalisés en fonction d'un profil. D'autres données peuvent être ajoutées pour mieux personnaliser les annonces et le contenu. Les performances des publicités et du contenu peuvent être mesurées. Il est possible d'obtenir des informations sur le public qui a vu les publicités et le contenu. Ces données peuvent être utilisées pour développer ou améliorer l'expérience de l'utilisateur, les systèmes et les logiciels.

En cliquant sur "J'accepte", vous autorisez l'utilisation de cookies, des identifiants d'appareils, des balises web ou d'autres technologies similaires. Vos paramètres peuvent être modifiés dans le navigateur de votre appareil.

Dans certains cas, des intérêts légitimes peuvent être invoqués plutôt qu'un consentement. Vous pouvez en savoir plus à ce sujet dans notre Politique de confidentialité et de cookies.